#timestamp,LO_Frequency,Hit,StdDev 
1579287615.0,286047001.9,N
1579287615.9,286047001.9,N
1579287635.8,286047001.3,N
1579287655.6,286047001.6,N
1579287675.5,286047002.3,N
1579287695.3,286047002.1,N
1579287715.1,286047005.9,N
1579287735.9,286047005.9,N
1579287755.7,286047003.6,N
1579287775.5,286047005.3,N
1579287795.4,286047003.7,N
1579287815.2,286047004.1,N
1579287835.1,286047004.4,N
1579287836.0,286047004.4,N
1579287855.8,286047004.1,N
1579287875.6,286047006.0,N
1579287895.5,286047007.1,Y
1579287915.3,286047003.1,P
1579287935.1,286047002.9,P
1579287955.9,286047004.2,P
1579287975.7,286047001.4,N
1579287995.6,286047004.4,Y
1579288015.4,286047001.2,P
1579288035.2,286046999.9,N
1579288055.1,286047000.0,N
1579288056.0,286047000.0,N
1579288075.8,286047001.8,N
1579288095.6,286047001.9,N
1579288115.5,286047002.8,N
1579288135.3,286046999.7,N
1579288155.2,286047000.9,N
1579288175.9,286047002.7,N
1579288195.7,286046998.5,N
1579288215.6,286046998.1,N
1579288235.4,286047001.9,N
1579288255.2,286046999.7,N
1579288275.1,286047002.7,N
1579288276.0,286047002.7,N
1579288295.8,286047001.5,N
1579288315.7,286047002.2,N
1579288335.5,286047000.6,N
1579288355.3,286046998.2,N
1579288375.2,286046998.3,N
1579288395.0,286047000.2,N
1579288395.9,286047000.2,N
1579288415.8,286047002.6,N
1579288435.6,286047002.7,N
1579288455.4,286047002.6,N
1579288475.3,286046998.3,N
1579288495.1,286046998.3,N
1579288496.0,286046998.3,N
1579288515.8,286047000.9,N
1579288535.7,286047000.4,N
1579288555.5,286047002.1,N
1579288575.3,286046999.8,N
1579288595.2,286047002.5,N
1579288615.0,286047003.8,N
1579288615.9,286047003.8,N
1579288635.8,286047003.4,N
1579288655.6,286047004.2,N
1579288675.4,286047003.9,N
1579288695.3,286047003.2,N
1579288715.1,286047003.0,N
1579288735.8,286047004.2,N
1579288755.7,286047002.2,N
1579288775.5,286046999.7,N
1579288795.4,286047002.5,N
1579288815.2,286047002.1,N
1579288835.0,286047003.0,N
1579288835.9,286047003.0,N
1579288855.8,286047007.1,Y
1579288875.6,286047004.7,P
1579288895.5,286047006.9,P
1579288915.3,286047007.1,P
1579288935.1,286047006.7,Y
1579288955.9,286047001.1,P
1579288975.7,286047000.7,N
1579288995.5,286046998.2,N
1579289015.4,286047001.0,N
1579289035.2,286046999.3,N
1579289055.1,286046996.9,N
1579289056.0,286046996.9,N
1579289075.8,286046998.4,N
1579289095.6,286046996.6,N
1579289115.5,286046998.6,N
1579289135.3,286046998.8,N
1579289155.1,286047001.1,N
1579289175.9,286047000.4,N
1579289195.7,286046998.6,N
1579289215.6,286046998.8,N
1579289235.4,286046999.8,N
1579289255.2,286047002.1,N
1579289275.1,286047000.3,N
1579289276.0,286047000.3,N
1579289295.8,286047002.8,N
1579289315.6,286047000.5,N
1579289335.5,286046999.0,N
1579289355.3,286047000.8,N
1579289375.2,286047000.1,N
1579289395.9,286046998.6,N
1579289415.7,286047000.0,N
1579289435.6,286047000.6,N
1579289455.4,286047000.3,N
1579289475.2,286046998.3,N
1579289495.1,286046999.1,N
1579289496.0,286046999.1,N
1579289515.8,286046998.7,N
1579289535.7,286046999.0,N
1579289555.5,286047001.2,N
1579289575.3,286046998.9,N
1579289595.2,286047000.8,N
1579289615.0,286046999.9,N
1579289615.9,286046999.9,N
1579289635.7,286046998.6,N
1579289655.6,286046999.2,N
1579289675.4,286046999.4,N
1579289695.3,286046998.1,N
1579289715.1,286046998.4,N
1579289716.0,286046998.4,N
1579289735.8,286047000.7,N
1579289755.7,286047000.1,N
1579289775.5,286046998.6,N
1579289795.3,286047000.8,N
1579289815.2,286047001.2,N
1579289835.0,286047001.2,N
1579289835.9,286047001.2,N
1579289855.8,286047000.7,N
1579289875.6,286047000.0,N
1579289895.4,286047001.0,N
1579289915.3,286046999.7,N
1579289935.1,286047000.8,N
1579289955.8,286047000.2,N
1579289975.7,286047001.0,N
1579289995.5,286047000.7,N
1579290015.4,286047000.8,N
1579290035.2,286047001.8,N
1579290055.0,286047001.3,N
1579290055.9,286047001.3,N
1579290075.8,286047003.6,Y
1579290095.6,286047006.0,P
1579290115.4,286047004.8,N
1579290135.3,286047003.6,N
1579290155.1,286047003.0,N
1579290175.9,286047001.3,N
1579290195.7,286047002.6,N
1579290215.5,286047000.0,N
1579290235.4,286046999.9,N
1579290255.2,286047003.9,N
1579290275.0,286047005.4,N
1579290275.9,286047005.4,N
1579290295.8,286047005.2,N
1579290315.6,286047003.4,N
1579290335.5,286047003.1,N
1579290355.3,286047002.3,N
1579290375.1,286047004.3,N
1579290395.9,286047004.4,N
1579290415.7,286047003.7,N
1579290435.6,286047003.8,N
1579290455.4,286047003.0,N
1579290475.2,286047003.7,N
1579290495.1,286047005.9,Y
1579290496.0,286047005.9,P
1579290515.8,286047002.0,N
1579290535.7,286047000.3,N
1579290555.5,286047000.2,N
1579290575.3,286047002.7,N
1579290595.2,286047004.2,N
1579290615.0,286047005.9,Y
1579290615.9,286047005.9,P
1579290635.8,286047002.5,N
1579290655.6,286047002.5,N
1579290675.4,286047002.7,N
1579290695.3,286047000.4,N
1579290715.1,286047002.1,N
1579290735.8,286047000.2,N
1579290755.7,286046999.9,N
1579290775.5,286047001.5,N
1579290795.3,286047002.3,N
1579290815.2,286047000.1,N
1579290835.0,286046999.8,N
1579290835.9,286046999.8,N
1579290855.8,286047004.4,N
1579290875.6,286047002.4,N
1579290895.4,286047001.9,N
1579290915.3,286046998.1,N
1579290935.1,286046999.9,N
1579290955.8,286047002.8,N
1579290975.7,286047002.4,N
1579290995.5,286047003.2,N
1579291015.4,286047004.4,N
1579291035.2,286047001.6,N
1579291055.0,286046999.9,N
1579291055.9,286046999.9,N
1579291075.8,286047003.1,N
1579291095.6,286047003.2,N
1579291115.5,286047003.1,N
1579291135.3,286047004.9,N
1579291155.1,286047007.1,Y
1579291175.9,286047005.7,P
1579291195.7,286047005.4,N
